Location: Central Falls
(41.8900°N, 71.3929°W)
Time: 11:59:45
(UTC+00:00)

Altair - Pass Details

Date: 13 December 2023
Orbit: 1501 x 1682 km, 47.2° (Epoch: 20 February)

Event Time Altitude Azimuth Distance (km) Brightness Sun altitude
Rises 07:37:22 0° 168° (SSE) 4,906 10.1 -48.7°
Reaches altitude 10° 07:43:42 10° 139° (SE) 3,897 9.8 -47.5°
Maximum altitude 07:46:38 12° 121° (ESE) 3,752 9.8 -47.0°
Drops below altitude 10° 07:49:32 10° 104° (ESE) 3,867 10.1 -46.5°
Sets 07:55:40 0° 75° (ENE) 4,814 10.9 -45.3°
